TimeEDT,TemperatureF,Dew PointF,Humidity,Sea Level PressureIn,VisibilityMPH,Wind Direction,Wind SpeedMPH,Gust SpeedMPH,PrecipitationIn,Events,Conditions,WindDirDegrees,DateUTC
12:15 AM,62.6,55.4,77,30.04,10.0,Calm,Calm,-,N/A,,Clear,0,2013-04-18 04:15:00
12:35 AM,62.6,55.4,77,30.04,10.0,SE,3.5,-,N/A,,Clear,140,2013-04-18 04:35:00
12:55 AM,62.6,55.4,77,30.03,10.0,Calm,Calm,-,N/A,,Clear,0,2013-04-18 04:55:00
1:15 AM,62.6,53.6,72,30.03,10.0,SE,3.5,-,N/A,,Clear,130,2013-04-18 05:15:00
1:35 AM,62.6,55.4,77,30.03,10.0,Calm,Calm,-,N/A,,Clear,0,2013-04-18 05:35:00
2:15 AM,60.8,55.4,82,30.02,10.0,SSE,3.5,-,N/A,,Clear,150,2013-04-18 06:15:00
2:35 AM,60.8,55.4,82,30.01,10.0,SSE,3.5,-,N/A,,Clear,150,2013-04-18 06:35:00
2:55 AM,60.8,55.4,82,30.00,10.0,South,3.5,-,N/A,,Clear,180,2013-04-18 06:55:00
3:15 AM,62.6,55.4,77,29.99,10.0,Calm,Calm,-,N/A,,Clear,0,2013-04-18 07:15:00
3:35 AM,60.8,55.4,82,29.99,10.0,Calm,Calm,-,N/A,,Clear,0,2013-04-18 07:35:00
3:55 AM,60.8,55.4,82,29.99,10.0,Calm,Calm,-,N/A,,Clear,0,2013-04-18 07:55:00
4:15 AM,60.8,53.6,77,29.98,10.0,ESE,3.5,-,N/A,,Clear,110,2013-04-18 08:15:00
4:35 AM,59.0,55.4,88,29.98,10.0,SSE,4.6,-,N/A,,Clear,150,2013-04-18 08:35:00
4:55 AM,60.8,55.4,82,29.98,10.0,SSE,5.8,-,N/A,,Clear,150,2013-04-18 08:55:00
5:15 AM,62.6,55.4,77,29.99,10.0,SSE,5.8,-,N/A,,Clear,160,2013-04-18 09:15:00
5:35 AM,62.6,55.4,77,29.99,10.0,South,4.6,-,N/A,,Clear,170,2013-04-18 09:35:00
5:55 AM,62.6,55.4,77,29.99,10.0,South,4.6,-,N/A,,Clear,180,2013-04-18 09:55:00
6:15 AM,62.6,55.4,77,30.00,10.0,South,4.6,-,N/A,,Clear,170,2013-04-18 10:15:00
6:35 AM,62.6,55.4,77,30.00,10.0,SSE,3.5,-,N/A,,Clear,160,2013-04-18 10:35:00
6:55 AM,60.8,55.4,82,29.99,10.0,SE,4.6,-,N/A,,Clear,140,2013-04-18 10:55:00
7:15 AM,60.8,55.4,82,29.99,10.0,SE,3.5,-,N/A,,Clear,130,2013-04-18 11:15:00
7:35 AM,62.6,55.4,77,30.01,10.0,Calm,Calm,-,N/A,,Clear,0,2013-04-18 11:35:00
7:55 AM,64.4,55.4,73,30.01,10.0,Calm,Calm,-,N/A,,Clear,0,2013-04-18 11:55:00
8:15 AM,68.0,57.2,68,30.01,10.0,SSW,9.2,17.3,N/A,,Clear,210,2013-04-18 12:15:00
8:35 AM,68.0,57.2,68,30.02,10.0,SSW,5.8,-,N/A,,Clear,210,2013-04-18 12:35:00
8:55 AM,69.8,57.2,64,30.02,10.0,SSW,8.1,17.3,N/A,,Clear,210,2013-04-18 12:55:00
9:15 AM,69.8,57.2,64,30.02,10.0,SSW,13.8,18.4,N/A,,Clear,210,2013-04-18 13:15:00
9:35 AM,69.8,57.2,64,30.02,10.0,SSW,11.5,21.9,N/A,,Clear,200,2013-04-18 13:35:00
9:55 AM,71.6,57.2,60,30.02,10.0,SSW,18.4,26.5,N/A,,Scattered Clouds,210,2013-04-18 13:55:00
10:15 AM,71.6,57.2,60,30.02,10.0,SSW,19.6,29.9,N/A,,Scattered Clouds,200,2013-04-18 14:15:00
10:35 AM,71.6,57.2,60,30.02,10.0,SSW,19.6,29.9,N/A,,Scattered Clouds,210,2013-04-18 14:35:00
10:55 AM,71.6,55.4,57,30.02,10.0,SSW,18.4,32.2,N/A,,Mostly Cloudy,200,2013-04-18 14:55:00
11:15 AM,73.4,55.4,53,30.01,10.0,SSW,24.2,33.4,N/A,,Scattered Clouds,200,2013-04-18 15:15:00
11:35 AM,73.4,55.4,53,30.00,10.0,South,17.3,29.9,N/A,,Scattered Clouds,190,2013-04-18 15:35:00
11:55 AM,73.4,55.4,53,30.00,10.0,South,18.4,32.2,N/A,,Scattered Clouds,190,2013-04-18 15:55:00
12:15 PM,75.2,55.4,50,29.98,10.0,South,18.4,28.8,N/A,,Scattered Clouds,180,2013-04-18 16:15:00
12:35 PM,75.2,55.4,50,29.98,10.0,South,19.6,27.6,N/A,,Scattered Clouds,190,2013-04-18 16:35:00
12:55 PM,77.0,55.4,47,29.96,10.0,South,16.1,25.3,N/A,,Scattered Clouds,180,2013-04-18 16:55:00
1:15 PM,77.0,53.6,44,29.96,10.0,South,20.7,28.8,N/A,,Scattered Clouds,180,2013-04-18 17:15:00
1:35 PM,78.8,53.6,42,29.95,10.0,SSW,19.6,28.8,N/A,,Scattered Clouds,200,2013-04-18 17:35:00
1:55 PM,78.8,53.6,42,29.94,10.0,South,17.3,25.3,N/A,,Scattered Clouds,190,2013-04-18 17:55:00
2:15 PM,78.8,50.0,36,29.93,10.0,SSW,19.6,27.6,N/A,,Clear,200,2013-04-18 18:15:00
2:35 PM,78.8,50.0,36,29.92,10.0,SSW,19.6,28.8,N/A,,Clear,200,2013-04-18 18:35:00
2:55 PM,78.8,51.8,39,29.92,10.0,SSW,17.3,23.0,N/A,,Scattered Clouds,200,2013-04-18 18:55:00
3:15 PM,80.6,50.0,34,29.91,10.0,SSW,19.6,25.3,N/A,,Scattered Clouds,200,2013-04-18 19:15:00
3:35 PM,80.6,46.4,30,29.90,10.0,SSW,18.4,34.5,N/A,,Clear,200,2013-04-18 19:35:00
3:55 PM,80.6,50.0,34,29.88,10.0,SSW,10.4,-,N/A,,Clear,200,2013-04-18 19:55:00
4:35 PM,80.6,48.2,32,29.87,10.0,SSW,17.3,26.5,N/A,,Clear,200,2013-04-18 20:35:00
4:55 PM,80.6,48.2,32,29.88,10.0,SSW,11.5,20.7,N/A,,Scattered Clouds,210,2013-04-18 20:55:00
5:15 PM,80.6,46.4,30,29.87,10.0,SSW,19.6,28.8,N/A,,Scattered Clouds,210,2013-04-18 21:15:00
5:35 PM,78.8,46.4,32,29.86,10.0,South,13.8,23.0,N/A,,Clear,190,2013-04-18 21:35:00
5:55 PM,78.8,46.4,32,29.86,10.0,SSW,17.3,27.6,N/A,,Clear,210,2013-04-18 21:55:00
6:15 PM,78.8,46.4,32,29.85,10.0,South,15.0,23.0,N/A,,Clear,190,2013-04-18 22:15:00
6:35 PM,77.0,46.4,34,29.85,10.0,SSW,13.8,25.3,N/A,,Clear,200,2013-04-18 22:35:00
6:55 PM,77.0,46.4,34,29.84,10.0,South,15.0,23.0,N/A,,Clear,190,2013-04-18 22:55:00
7:15 PM,77.0,48.2,36,29.84,10.0,South,9.2,18.4,N/A,,Clear,190,2013-04-18 23:15:00
7:35 PM,77.0,48.2,36,29.83,10.0,SSW,10.4,18.4,N/A,,Clear,200,2013-04-18 23:35:00
7:55 PM,75.2,48.2,38,29.83,10.0,South,8.1,-,N/A,,Clear,190,2013-04-18 23:55:00
8:15 PM,75.2,48.2,38,29.83,10.0,South,12.7,17.3,N/A,,Clear,190,2013-04-19 00:15:00
8:35 PM,75.2,50.0,41,29.81,10.0,South,5.8,-,N/A,,Clear,180,2013-04-19 00:35:00
8:55 PM,73.4,50.0,44,29.82,10.0,South,8.1,-,N/A,,Clear,180,2013-04-19 00:55:00
9:15 PM,73.4,50.0,44,29.83,10.0,SSW,6.9,-,N/A,,Clear,200,2013-04-19 01:15:00
9:35 PM,73.4,50.0,44,29.81,10.0,South,11.5,19.6,N/A,,Clear,180,2013-04-19 01:35:00
10:55 PM,71.6,51.8,50,29.76,10.0,South,10.4,-,N/A,,Clear,170,2013-04-19 02:55:00
11:35 PM,71.6,51.8,50,29.75,10.0,South,11.5,17.3,N/A,,Clear,180,2013-04-19 03:35:00
11:55 PM,73.4,51.8,47,29.74,10.0,South,10.4,18.4,N/A,,Clear,180,2013-04-19 03:55:00